Monroe, MI

8:57 AM EDT on March 30, 2017 (GMT -0400)
Custer

Weather History for KTTF - September, 2011

Change the Weather History Date:

Friday, September 2, 2011

  Actual Average Record
Temperature  
Mean Temperature 82 °F -  
Max Temperature 96 °F 80 °F 97 °F (1943)
Min Temperature 69 °F 59 °F 43 °F (1946)
Cooling Degree Days 18    
Growing Degree Days 32 (Base 50)    
Moisture  
Dew Point 73 °F    
Average Humidity 81    
Maximum Humidity 100    
Minimum Humidity 34    
Precipitation  
Precipitation 0.00 in - - ()
Sea Level Pressure  
Sea Level Pressure 29.93 in    
Wind  
Wind Speed 3 mph (SW)    
Max Wind Speed 16 mph    
Max Gust Speed 22 mph    
Visibility 5 miles    
Events Fog    
Averages and records for this station are not official NWS values.
T = Trace of Precipitation, MM = Missing Value Source: NWS Daily Summary

Daily Weather History Graph

Daily Weather History Graph

Search for Another Location

Airport or City:

Trip Planner

Search our weather history database for the weather conditions in past years. The results will help you decide how hot, cold, wet, or windy it might be!

Date:

Astronomy

Sep. 02, 2011 Rise Set
Actual Time 7:00 AM EDT 8:06 PM EDT
Civil Twilight 6:31 AM EDT 8:34 PM EDT
Nautical Twilight 5:57 AM EDT 9:08 PM EDT
Astronomical Twilight 5:21 AM EDT 9:44 PM EDT
Moon 12:38 PM EDT (9/2) 10:32 PM EDT (9/2)
Length of Visible Light 14h 03m
Length of Day
13h 05m
Waxing Crescent, 27% of the Moon is Illuminated
Sep 2
Waxing Crescent
Sep 4
First Quarter
Sep 12
Full
Sep 20
Last Quarter
Sep 27
New

Hourly Weather History & Observations

Time (EDT) Temp. Heat Index Dew Point Humidity Pressure Visibility Wind Dir Wind Speed Gust Speed Precip Events Conditions
12:11 AM 73.4 °F - 73.4 °F 100% 29.95 in 2.5 mi Calm Calm - N/A   Clear
12:31 AM 73.4 °F - 73.4 °F 100% 29.95 in 3.0 mi Calm Calm - N/A   Clear
12:51 AM 73.4 °F - 73.4 °F 100% 29.95 in 1.5 mi Calm Calm - N/A   Mist
1:11 AM 71.6 °F - 71.6 °F 100% 29.95 in 3.0 mi Calm Calm - N/A   Clear
1:31 AM 71.6 °F - 71.6 °F 100% 29.94 in 2.5 mi Calm Calm - N/A   Clear
1:51 AM 73.4 °F - 73.4 °F 100% 29.94 in 3.0 mi Calm Calm - N/A   Clear
2:11 AM 75.2 °F - 75.2 °F 100% 29.94 in 3.0 mi Calm Calm - N/A   Clear
2:31 AM 73.4 °F - 73.4 °F 100% 29.93 in 3.0 mi Calm Calm - N/A   Clear
3:12 AM 73.4 °F - 73.4 °F 100% 29.92 in 2.0 mi Calm Calm - N/A   Clear
3:32 AM 73.4 °F - 73.4 °F 100% 29.92 in 2.0 mi Calm Calm - N/A   Clear
3:52 AM 75.2 °F - 75.2 °F 100% 29.91 in 2.5 mi Calm Calm - N/A   Clear
4:12 AM 73.4 °F - 73.4 °F 100% 29.91 in 2.5 mi Calm Calm - N/A   Clear
4:32 AM 73.4 °F - 73.4 °F 100% 29.92 in 1.8 mi Calm Calm - N/A   Mist
4:52 AM 73.4 °F - 73.4 °F 100% 29.92 in 2.0 mi Calm Calm - N/A   Clear
5:12 AM 71.6 °F - 71.6 °F 100% 29.93 in 0.2 mi Calm Calm - N/A Fog Fog
5:33 AM 71.6 °F - 71.6 °F 100% 29.94 in 1.2 mi Calm Calm - N/A   Mist
5:53 AM 71.6 °F - 71.6 °F 100% 29.94 in 0.2 mi Calm Calm - N/A Fog Fog
6:13 AM 69.8 °F - 69.8 °F 100% 29.94 in 1.0 mi Calm Calm - N/A   Overcast
6:33 AM 69.8 °F - 69.8 °F 100% 29.95 in 1.0 mi WNW 3.5 mph - N/A   Mostly Cloudy
6:53 AM 71.6 °F - 71.6 °F 100% 29.96 in 1.0 mi West 4.6 mph - N/A   Mist
7:13 AM 71.6 °F - 71.6 °F 100% 29.95 in 1.2 mi West 3.5 mph - N/A   Mist
7:33 AM 73.4 °F - 73.4 °F 100% 29.96 in 2.0 mi Calm Calm - N/A   Clear
7:53 AM 73.4 °F - 73.4 °F 100% 29.96 in 1.5 mi Calm Calm - N/A   Mist
8:13 AM 73.4 °F - 73.4 °F 100% 29.95 in 1.8 mi WSW 5.8 mph - N/A   Mist
8:33 AM 75.2 °F - 75.2 °F 100% 29.95 in 2.5 mi WSW 5.8 mph - N/A   Clear
8:53 AM 75.2 °F - 75.2 °F 100% 29.94 in 3.0 mi SW 6.9 mph - N/A   Clear
9:13 AM 77.0 °F - 77.0 °F 100% 29.93 in 5.0 mi SW 4.6 mph - N/A   Clear
9:33 AM 77.0 °F - 77.0 °F 100% 29.91 in 5.0 mi SSW 4.6 mph - N/A   Clear
9:54 AM 78.8 °F - 78.8 °F 100% 29.92 in 5.0 mi SSW 3.5 mph - N/A   Clear
10:14 AM 80.6 °F 88.1 °F 78.8 °F 94% 29.92 in 7.0 mi Calm Calm - N/A   Clear
10:34 AM 82.4 °F 92.4 °F 78.8 °F 89% 29.93 in 7.0 mi ENE 5.8 mph - N/A   Clear
10:54 AM 84.2 °F 94.1 °F 77.0 °F 79% 29.94 in 10.0 mi ESE 3.5 mph - N/A   Clear
11:14 AM 84.2 °F 92.3 °F 75.2 °F 74% 29.93 in 10.0 mi SSW 3.5 mph - N/A   Clear
11:34 AM 87.8 °F 97.6 °F 75.2 °F 66% 29.93 in 7.0 mi South 4.6 mph - N/A   Clear
11:54 AM 87.8 °F 99.7 °F 77.0 °F 70% 29.93 in 7.0 mi South 6.9 mph - N/A   Clear
12:14 PM 89.6 °F 99.8 °F 75.2 °F 62% 29.93 in 10.0 mi SSW 6.9 mph - N/A   Clear
12:35 PM 89.6 °F 104.7 °F 78.8 °F 70% 29.94 in 7.0 mi South 5.8 mph - N/A   Clear
12:55 PM 89.6 °F 102.2 °F 77.0 °F 66% 29.93 in 7.0 mi SSW 5.8 mph - N/A   Clear
1:15 PM 91.4 °F 100.1 °F 73.4 °F 55% 29.93 in 10.0 mi WSW 5.8 mph - N/A   Clear
1:35 PM 91.4 °F 100.1 °F 73.4 °F 55% 29.92 in 10.0 mi SW 10.4 mph - N/A   Clear
1:55 PM 93.2 °F 102.4 °F 73.4 °F 52% 29.92 in 10.0 mi SW 10.4 mph 16.1 mph N/A   Clear
2:10 PM 93.2 °F 102.4 °F 73.4 °F 52% 29.92 in 10.0 mi SW 12.7 mph 19.6 mph N/A   Clear
2:30 PM 96.8 °F 103.1 °F 69.8 °F 41% 29.91 in 10.0 mi West 12.7 mph 18.4 mph N/A   Clear
2:51 PM 96.8 °F 100.7 °F 66.2 °F 37% 29.91 in 10.0 mi West 11.5 mph 16.1 mph N/A   Clear
3:11 PM 96.8 °F 99.0 °F 64.4 °F 34% 29.90 in 10.0 mi West 12.7 mph 18.4 mph N/A   Clear
3:31 PM 96.8 °F 99.0 °F 64.4 °F 34% 29.90 in 10.0 mi West 16.1 mph 21.9 mph N/A   Clear
3:51 PM 96.8 °F 99.0 °F 64.4 °F 34% 29.90 in 10.0 mi West 15.0 mph 19.6 mph N/A   Clear
4:11 PM 96.8 °F 100.7 °F 66.2 °F 37% 29.90 in 10.0 mi WNW 13.8 mph 19.6 mph N/A   Clear
4:31 PM 96.8 °F 99.0 °F 64.4 °F 34% 29.90 in 10.0 mi WNW 12.7 mph 19.6 mph N/A   Clear
4:51 PM 95.0 °F 98.5 °F 66.2 °F 39% 29.90 in 10.0 mi WNW 10.4 mph - N/A   Clear
5:12 PM 95.0 °F 101.3 °F 69.8 °F 44% 29.90 in 10.0 mi WNW 8.1 mph - N/A   Clear
5:32 PM 93.2 °F 98.8 °F 69.8 °F 46% 29.90 in 10.0 mi WNW 8.1 mph - N/A   Clear
6:12 PM 93.2 °F 100.5 °F 71.6 °F 49% 29.90 in 10.0 mi WSW 5.8 mph - N/A   Clear
6:32 PM 93.2 °F 100.5 °F 71.6 °F 49% 29.89 in 10.0 mi WSW 5.8 mph - N/A   Clear
6:52 PM 91.4 °F 100.1 °F 73.4 °F 55% 29.90 in 10.0 mi NW 4.6 mph - N/A   Clear
7:12 PM 89.6 °F 98.2 °F 73.4 °F 59% 29.89 in 10.0 mi NNW 4.6 mph - N/A   Clear
7:33 PM 87.8 °F 97.6 °F 75.2 °F 66% 29.89 in 10.0 mi WNW 3.5 mph - N/A   Clear
7:53 PM 86.0 °F 95.1 °F 75.2 °F 70% 29.89 in 10.0 mi WNW 4.6 mph - N/A   Clear
8:13 PM 82.4 °F 89.5 °F 75.2 °F 79% 29.88 in 10.0 mi Calm Calm - N/A   Clear
8:33 PM 82.4 °F 89.5 °F 75.2 °F 79% 29.88 in 10.0 mi Calm Calm - N/A   Clear
8:53 PM 78.8 °F - 78.8 °F 100% 29.88 in 7.0 mi Calm Calm - N/A   Clear
9:13 PM 78.8 °F - 78.8 °F 100% 29.88 in 7.0 mi Calm Calm - N/A   Clear
9:33 PM 77.0 °F - 77.0 °F 100% 29.89 in 7.0 mi South 4.6 mph - N/A   Clear
9:54 PM 80.6 °F 87.1 °F 77.0 °F 89% 29.89 in 10.0 mi Calm Calm - N/A   Clear
10:14 PM 78.8 °F - 78.8 °F 100% 29.89 in 7.0 mi Calm Calm - N/A   Clear
10:34 PM 78.8 °F - 77.0 °F 94% 29.89 in 7.0 mi Calm Calm - N/A   Clear
10:54 PM 75.2 °F - 75.2 °F 100% 29.89 in 7.0 mi Calm Calm - N/A   Clear
11:14 PM 75.2 °F - 75.2 °F 100% 29.89 in 7.0 mi Calm Calm - N/A   Clear
11:34 PM 75.2 °F - 75.2 °F 100% 29.89 in 7.0 mi Calm Calm - N/A   Clear
11:54 PM 75.2 °F - 75.2 °F 100% 29.91 in 7.0 mi NNW 8.1 mph - N/A   Clear